Location: Croisilles
(50.1998°N, 2.8793°E)
Time: 13:29:35
(UTC+00:00)

Cosmos 2112 Rocket - Pass Details

Date: 21 January 2021
Orbit: 757 x 786 km, 74.1° (Epoch: 26 February)

Event Time Altitude Azimuth Distance (km) Brightness Sun altitude
Rises 18:16:56 0° 337° (NNW) 3,258 7.4 -17.7°
Reaches altitude 10° 18:19:22 10° 341° (NNW) 2,322 6.6 -18.1°
Maximum altitude 18:24:36 63° 62° (ENE) 856 3.9 -18.9°
Enters shadow 18:28:50 15° 142° (SE) 1,948 5.8 -19.6°
